Location: Geroldsau
(48.7259°N, 8.2466°E)
Time: 16:38:34
(UTC+00:00)

FENGYUN 1C DEB - Pass Details

Date: 30 January 2022
Orbit: 833 x 1169 km, 98.6° (Epoch: 27 May)

Event Time Altitude Azimuth Distance (km) Brightness Sun altitude
Rises 17:39:10 0° 10° (N) 3,505 ? -12.9°
Reaches altitude 10° 17:41:34 10° 5° (N) 2,599 ? -13.3°
Maximum altitude 17:47:07 49° 292° (WNW) 1,218 ? -14.2°
Drops below altitude 10° 17:53:05 10° 220° (SW) 2,796 ? -15.1°
Sets 17:55:45 0° 215° (SW) 3,795 ? -15.6°
